SCP
0 0 0 0 0 0 0 0 0 0 0 -0 -0 -0 -0 -0 0 0 0 0 0 0 0 0 0 0 0 0 0 0 0 0 0 0 0 0 0 0 0 0 0 0 0 0 0 0 0 0 0
0 0 0 0 0 0 0 0 0 0 0 -0 -0 -0 -0 -0 0 0 0 0 0 0 0 0 0 0 0 0 0 0 0 0 0 0 0 0 0 0 0 0 0 0 0 0 0 0 0 0 0
0 0 0 0 0 0 0 0 0 0 -0 -0 -0 -0 -0 -0 0 0 0 0 0 0 0 0 0 0 0 0 0 0 0 0 0 0 0 0 0 0 0 0 0 0 0 0 0 0 0 0 0
0 0 0 -0 -0 -0 -0 -0 -0 0 -0 -0 -0 -0 -0 0 0 0 0 0 0 0 0 0 0 0 0 0 0 0 0 0 0 0 0 0 0 0 0 0 0 0 0 0 0 0 0 0 0
0 0 -0 -0 -0 -0 -0 -0 -0 0 -0 -0 -0 0 0 0 0 0 0 0 0 0 0 0 0 0 0 0 0 0 0 0 0 0 0 0 0 0 0 0 0 0 0 0 0 0 0 0 0
0 0 -0 -0 -0 -0 -0 -0 -0 -0 -0 -0 0 0 0 0 0 0 0 0 0 0 0 0 0 0 0 0 0 0 0 0 0 0 0 0 0 0 0 0 0 0 0 0 0 0 0 0 0
0 0 -0 -0 0 -0 -0 -0 0 0 0 0 0 0 0 0 0 0 0 0 0 0 0 0 0 0 0 0 0 0 0 0 0 0 0 0 0 0 0 0 0 0 0 0 0 0 0 0 0
0 0 -0 -0 0 0 0 0 0 -0 0 0 0 0 0 0 0 0 0 0 0 0 0 0 0 0 0 0 0 0 0 0 0 0 0 0 0 0 0 0 0 0 0 0 0 0 0 0 0
0 0 -0 -0 0 0 0 0 0 0 0 0 0 0 0 0 0 0 0 0 0 0 0 0 0 0 0 0 0 0 0 0 0 0 0 0 0 0 0 0 0 0 0 0 0 0 0 0 0
0 0 -0 -0 0 0 0 0 0 0 0 0 0 0 0 0 0 0 0 0 0 0 0 0 0 0 0 0 0 0 0 0 0 0 0 0 0 0 0 0 0 0 0 0 0 0 0 0 0
0 0 0 0 0 0 0 0 0 0 0 0 0 0 0 0 0 0 0 0 0 0 0 0 0 0 0 0 0 0 0 0 0 0 0 0 0 0 0 0 0 0 0 0 0 0 0 0 0
0 0 0 0 0 0 0 0 0 0 0 0 0 0 0 1 0 0 0 0 0 0 0 0 0 0 0 0 0 0 0 0 0 0 0 0 0 0 0 0 0 0 0 0 0 0 0 0 0
0 0 0 0 0 0 0 0 0 0 0 0 0 0 1 1 0 0 0 0 0 0 0 0 0 0 0 0 0 0 0 0 0 0 0 0 0 0 0 0 0 0 0 0 0 0 0 0 0
0 0 0 0 0 0 0 0 0 0 0 0 0 0 1 1 1 1 0 0 0 0 0 0 0 0 0 0 0 0 0 0 0 0 0 0 0 0 0 0 0 0 0 0 0 0 0 0 0
0 0 0 0 0 0 0 0 0 0 0 0 0 0 1 1 1 1 1 1 1 0 0 0 0 0 0 0 0 0 0 0 0 0 0 0 0 0 0 0 0 0 0 0 0 0 0 0 0
0 0 0 0 0 0 0 0 0 0 0 0 0 0 1 1 1 1 1 1 1 1 1 0 0 0 0 0 0 0 0 0 0 0 0 0 0 0 0 0 0 0 0 0 0 0 0 0 0
0 0 0 0 0 0 0 0 0 0 0 0 0 1 1 1 2 2 2 2 2 1 1 1 1 1 1 1 1 1 0 0 0 0 0 0 0 0 0 0 0 0 0 0 0 0 0 0 0
0 0 0 0 0 0 0 0 0 0 0 0 0 1 1 2 2 2 2 2 2 2 2 1 1 1 1 1 1 0 0 0 0 0 0 0 0 0 0 0 0 0 0 0 0 0 0 0 0
0 0 0 0 0 0 0 0 0 0 0 0 1 1 2 2 2 3 3 2 2 2 2 2 1 1 1 1 1 0 0 0 0 0 0 0 0 0 0 0 0 0 0 0 0 0 0 0 0
0 0 0 0 0 0 0 0 0 0 0 0 1 1 2 2 3 3 3 2 2 2 2 2 1 1 1 1 0 0 0 0 0 0 0 0 0 0 0 0 0 0 0 0 0 0 0 0 0
0 0 0 0 0 0 0 0 0 0 0 1 1 1 2 2 2 2 2 2 2 2 2 1 1 1 1 0 0 0 0 0 0 0 0 0 0 0 0 0 0 0 0 0 0 0 0 0 0
0 0 0 0 0 0 0 0 0 0 0 0 1 1 1 2 2 2 2 1 1 1 1 1 1 1 0 0 0 0 0 0 0 0 0 0 0 0 0 0 0 0 0 0 0 0 0 0 0
0 0 0 0 0 0 0 0 0 0 0 0 1 1 1 2 2 1 1 1 1 1 1 1 1 0 0 0 0 0 0 0 0 0 0 0 0 0 0 0 0 0 0 0 0 0 0 0 0
0 0 0 0 0 0 0 0 0 0 0 0 0 1 1 1 1 1 1 0 0 0 0 0 0 0 0 0 0 0 0 0 0 0 0 0 0 0 0 0 0 0 0 0 0 0 0 0 0
0 0 0 0 0 0 0 0 0 0 0 0 0 1 1 1 1 1 0 0 0 0 0 0 0 0 0 0 0 0 0 0 0 0 0 0 0 0 0 0 0 0 0 0 0 0 0 0 0
0 0 0 0 0 0 0 0 0 0 0 0 0 1 1 1 1 1 0 0 0 0 0 0 0 0 0 0 0 0 0 0 0 0 0 0 0 0 0 0 0 0 0 0 0 0 0 0 0
0 0 0 0 0 0 0 0 0 0 0 0 0 1 1 1 1 1 0 0 0 0 0 0 0 0 0 0 0 0 0 0 0 0 0 0 0 0 0 0 0 0 0 0 0 0 0 0 0
0 0 0 0 0 0 0 0 0 0 0 0 0 1 1 1 1 0 0 0 0 0 0 0 0 0 0 0 0 0 0 0 0 0 0 0 0 0 0 0 0 0 0 0 0 0 0 0 0
0 0 0 0 0 0 0 0 0 0 0 0 0 1 1 1 1 0 0 0 0 0 0 0 0 0 0 0 0 0 0 0 0 0 0 0 0 0 0 0 0 0 0 0 0 0 0 0 0
0 0 0 0 0 0 0 0 0 0 0 0 0 1 1 1 1 0 0 0 0 0 0 0 0 0 0 0 0 0 0 0 0 0 0 0 0 0 0 0 0 0 0 0 0 0 0 0 0
Wind_Speed
11 10 7 6 8 8 4 3 2 4 4 3 3 3 4 6 7 7 7 10 11 12 15 16 13 12 11 10 11 12 12 13 13 12 12 11 10 9 8 7 6 6 6 7 8 8 8 8 7
8 7 7 7 9 8 4 4 5 4 6 6 5 2 2 5 6 8 10 11 13 13 13 14 15 13 12 11 11 11 12 12 12 11 11 10 9 8 7 6 6 6 6 6 7 7 7 6 6
8 8 7 7 9 6 4 5 6 7 8 6 5 2 3 5 6 7 10 13 13 12 11 14 15 14 13 12 11 11 12 11 11 10 10 9 8 7 6 6 5 5 5 5 6 6 6 5 4
7 8 7 10 11 4 1 5 8 10 8 6 5 5 5 5 4 9 13 14 13 12 12 15 13 14 13 13 12 12 12 11 10 9 9 8 7 6 6 5 5 5 5 4 4 4 4 4 4
8 8 11 12 10 4 3 5 9 11 9 7 5 6 7 5 7 12 13 13 13 12 11 15 12 13 13 13 12 12 11 10 9 9 8 7 6 6 5 4 4 4 4 4 3 4 5 5 4
8 8 10 11 9 6 6 8 11 10 9 9 7 7 8 8 10 12 13 12 12 11 11 13 12 12 13 12 11 10 9 9 8 8 7 7 6 5 4 4 4 4 4 4 5 5 6 5 5
10 9 12 8 7 8 7 10 13 11 10 10 8 7 8 10 11 12 12 11 11 11 11 12 13 13 12 10 10 10 9 8 8 8 7 6 5 5 4 4 5 5 5 5 6 6 6 6 6
7 7 10 8 7 7 7 10 12 11 8 8 7 7 8 13 13 13 12 11 11 10 9 10 10 12 12 12 11 10 9 8 8 7 6 6 6 6 5 5 7 6 6 6 6 6 6 5 5
7 9 9 7 6 5 6 11 11 9 8 9 8 3 6 18 16 15 13 12 11 9 8 9 9 9 9 10 11 11 9 8 8 8 7 6 6 5 6 8 7 6 6 6 6 5 4 3 6
8 11 6 2 2 1 4 10 12 12 13 12 11 7 11 18 17 17 16 15 14 12 10 9 9 10 9 7 9 7 8 8 6 5 6 4 2 1 2 9 6 6 5 5 5 3 4 6 3
8 8 1 3 3 5 5 9 13 15 14 15 16 15 17 18 18 17 16 15 14 13 11 9 9 8 8 6 6 5 4 5 5 5 4 2 2 3 2 3 6 5 5 3 5 5 2 1 1
9 8 6 5 4 6 6 8 13 15 11 9 13 16 19 20 19 17 16 15 13 12 11 9 10 8 7 5 5 5 5 4 4 5 5 4 2 2 1 1 0 2 2 0 2 1 1 2 2
13 9 7 8 8 7 7 9 11 13 7 4 10 16 20 20 18 16 14 13 13 12 11 10 9 8 7 5 4 5 4 4 4 3 4 2 3 2 1 1 1 3 2 2 2 3 2 3 4
8 9 9 9 7 4 7 8 10 6 5 8 12 17 20 20 19 16 14 13 12 11 10 9 10 9 8 6 5 4 4 3 3 3 2 3 2 1 2 2 1 2 2 3 3 3 3 4 4
6 10 12 10 8 4 6 10 9 4 5 10 13 16 18 19 18 17 15 12 11 10 9 9 9 9 8 8 6 4 4 4 3 2 1 1 1 0 1 1 1 1 1 1 2 2 3 3 4
10 13 14 10 7 5 10 13 9 3 6 9 11 13 16 17 18 15 13 10 10 10 9 9 8 9 8 6 5 4 3 3 2 2 3 3 3 2 0 1 2 2 1 1 1 3 3 3 5
13 16 18 12 6 5 10 10 7 2 6 9 10 12 14 15 16 13 12 10 9 9 9 9 8 9 9 8 7 6 5 4 4 4 4 5 5 4 3 3 4 1 2 2 3 3 5 5 5
14 16 16 15 7 7 10 9 4 4 7 9 10 11 13 15 14 11 10 10 9 9 9 9 9 9 9 8 7 7 7 6 5 6 6 6 6 6 4 4 4 3 2 3 3 3 3 4 5
9 10 13 11 4 9 12 11 8 6 8 10 10 11 12 13 10 10 10 10 9 9 10 10 10 10 8 7 7 6 6 6 6 7 8 8 7 7 5 4 4 3 3 4 4 4 5 5 4
13 14 15 12 7 9 11 12 10 9 11 10 11 11 12 12 11 10 10 10 10 10 10 10 10 10 8 6 5 5 7 6 6 6 7 7 7 6 5 4 3 3 2 2 3 3 5 5 4
15 15 15 14 10 11 12 17 15 11 11 10 12 13 13 14 14 13 11 11 10 10 10 9 10 9 8 9 7 8 7 6 6 5 5 6 6 6 5 4 3 2 3 2 3 4 5 6 6
15 13 13 14 14 13 10 14 14 12 12 13 14 14 14 14 14 13 13 12 11 10 10 10 10 10 9 9 8 8 5 5 5 4 5 5 5 4 4 3 3 3 4 3 5 4 6 6 7
13 9 11 13 14 15 13 13 14 8 12 15 15 15 14 13 13 13 13 13 12 11 10 10 11 10 9 7 7 6 6 6 5 4 5 3 3 3 3 3 3 3 3 4 5 4 5 5 6
10 8 10 12 13 17 17 16 14 10 11 12 12 14 13 13 13 13 13 13 12 11 11 11 11 10 9 8 8 7 8 7 6 4 3 1 2 1 3 3 3 3 3 3 3 4 3 4 5
11 11 10 11 13 15 13 13 12 8 8 9 7 11 14 14 15 15 15 14 13 13 12 11 12 11 9 9 9 9 8 7 6 3 3 1 1 1 2 3 3 3 3 3 4 4 4 5 5
15 16 13 11 11 10 8 11 8 3 5 6 7 9 14 16 16 16 16 16 15 14 12 11 11 11 10 9 9 8 6 4 5 3 2 2 2 3 3 3 4 4 4 5 4 6 5 5 7
18 17 18 17 18 16 13 13 8 8 11 11 10 12 15 16 16 16 16 16 15 14 13 12 12 10 9 9 9 8 6 5 5 3 0 1 1 2 3 4 5 5 5 6 6 6 7 7 9
16 13 10 13 15 17 17 17 13 10 10 10 11 14 16 16 16 16 16 16 14 13 12 11 11 11 10 9 7 7 6 5 3 1 2 2 3 3 5 6 6 6 7 7 8 9 8 9 10
13 14 13 13 14 15 16 11 4 4 5 6 9 13 17 18 18 16 15 15 15 14 12 11 11 11 9 9 7 6 5 3 1 0 1 2 4 5 6 7 7 8 9 9 9 11 11 12 12
10 14 15 14 15 15 15 13 3 1 4 6 7 9 14 17 17 17 16 16 15 14 13 11 11 10 9 8 7 6 4 2 1 2 3 4 5 6 7 8 9 10 10 10 11 12 13 13 14
Wind_Direction
180 194 222 241 247 238 250 121 138 135 125 96 79 25 12 12 1 52 109 141 141 140 136 146 147 148 145 138 128 120 116 114 112 112 113 115 116 116 116 112 104 97 95 93 89 87 87 88 88
184 197 227 242 256 243 158 135 161 118 105 127 126 102 56 67 54 96 132 140 147 143 145 147 143 150 150 146 137 131 128 125 122 121 121 120 119 118 117 114 105 97 92 89 88 87 87 86 83
195 222 246 244 247 263 112 135 136 123 138 163 144 105 49 62 96 117 129 144 148 146 145 134 150 153 155 154 148 144 140 137 134 131 128 125 123 120 118 115 109 102 96 92 90 87 85 81 73
206 213 232 245 237 230 103 138 143 148 158 171 158 122 92 70 100 122 136 149 150 151 150 139 156 155 157 159 156 152 149 147 145 142 137 134 131 127 123 119 114 109 103 99 94 92 88 81 76
231 234 228 231 226 192 193 171 168 164 160 168 177 134 115 99 108 128 144 152 154 151 147 142 154 155 159 162 160 157 153 150 148 145 143 140 137 131 125 118 110 104 99 95 87 89 87 83 74
217 230 230 218 194 184 191 188 187 176 161 162 174 145 115 126 139 147 150 157 153 150 147 137 152 159 162 165 162 157 151 148 145 143 141 138 132 126 119 108 98 92 89 87 87 88 85 78 69
240 232 236 218 184 186 186 190 199 187 173 169 172 152 130 152 151 155 152 156 154 151 151 152 158 163 165 162 159 152 146 143 141 140 139 137 132 126 115 104 93 90 90 90 90 89 83 77 71
262 251 227 209 199 172 169 190 202 201 176 146 174 176 158 158 157 158 155 158 155 156 156 154 159 160 167 164 158 152 147 144 142 142 144 146 155 150 137 143 101 96 96 95 93 90 88 88 83
249 245 210 185 192 154 167 190 190 198 169 172 189 187 126 147 160 165 162 164 162 159 159 163 159 162 166 157 150 160 155 151 163 163 158 198 194 161 161 88 91 96 98 97 95 95 103 141 136
234 240 184 132 259 236 188 198 178 188 188 188 185 165 144 155 169 176 174 173 171 169 172 170 163 165 168 157 153 171 174 162 194 157 168 189 132 119 87 114 111 108 112 126 113 128 191 237 177
228 249 174 230 278 288 236 205 190 199 198 199 194 177 165 172 180 185 182 178 174 169 173 170 166 173 166 163 166 168 168 154 176 165 172 163 183 168 178 160 156 154 176 175 150 201 212 276 355
236 245 261 280 307 280 253 208 199 210 213 205 196 177 173 181 187 190 185 179 172 171 171 170 165 171 178 169 162 172 172 169 172 157 199 180 186 197 156 238 108 210 188 141 264 245 202 270 265
233 243 248 264 277 277 252 219 208 211 209 187 183 176 182 187 189 191 187 179 175 171 170 167 173 162 167 173 185 181 173 172 160 172 179 205 211 210 209 240 284 285 295 244 259 286 291 277 260
237 247 257 265 265 234 226 199 206 190 189 191 185 187 190 191 190 185 186 183 178 174 172 165 173 165 170 176 182 175 178 169 175 179 166 213 246 239 246 234 256 299 313 334 316 311 294 287 299
252 251 243 234 233 215 224 193 194 143 195 196 197 197 195 194 190 188 185 184 178 174 171 168 169 164 173 173 174 170 168 171 167 136 132 218 259 208 245 269 240 6 10 345 291 307 288 287 286
225 235 237 203 209 205 235 210 151 146 203 206 207 201 199 196 194 188 180 178 174 173 168 168 165 158 159 152 150 144 135 128 119 111 101 80 66 73 88 73 60 41 351 333 336 306 297 298 294
219 231 231 201 187 226 241 234 138 196 223 219 211 204 201 195 197 185 180 172 171 172 166 161 151 149 145 135 129 114 104 97 96 89 81 79 73 72 69 61 57 31 22 2 337 358 325 311 311
228 233 233 233 180 239 243 241 200 217 236 228 218 210 203 199 194 176 172 163 162 163 158 148 140 136 134 128 121 115 107 103 93 84 76 77 75 67 67 81 55 17 22 15 13 346 337 316 311
269 261 250 246 246 259 250 246 238 224 232 231 221 213 206 200 175 161 161 158 156 155 151 147 140 139 141 140 139 129 115 107 97 86 79 75 69 66 50 59 62 24 36 15 354 331 309 295 314
240 245 249 248 228 260 258 251 245 236 235 235 229 218 209 187 168 166 164 162 158 152 148 143 143 143 145 130 115 108 108 98 90 86 79 74 70 61 64 47 43 37 26 22 352 334 311 304 301
234 244 254 261 259 246 260 252 232 221 229 232 233 226 212 196 184 172 167 159 152 149 149 143 138 136 128 128 122 122 120 129 122 109 94 74 71 69 56 49 27 7 318 355 331 315 317 315 307
239 240 254 261 261 257 241 268 241 211 219 225 225 220 213 197 188 175 166 154 147 139 136 134 132 128 131 140 141 145 146 132 111 109 96 92 73 64 56 39 25 351 339 344 310 355 318 306 305
247 258 251 254 260 266 249 257 263 206 231 232 222 215 207 193 181 170 162 149 139 136 134 130 126 122 123 123 126 131 119 114 118 112 105 102 92 66 43 27 6 348 335 356 340 333 320 314 317
237 240 245 248 252 252 249 254 260 222 234 246 224 204 196 183 168 156 145 139 136 135 134 131 124 119 119 118 116 112 112 113 113 110 112 144 107 74 49 8 359 335 345 343 326 315 301 320 322
217 230 236 232 227 245 241 247 260 260 246 256 241 198 186 175 164 156 151 148 145 144 139 135 128 124 121 116 111 110 114 119 116 117 106 11 19 31 52 347 332 330 329 314 309 294 306 297 299
218 230 247 265 264 264 224 239 260 245 261 262 245 203 179 175 171 166 160 155 151 148 144 140 135 131 127 118 113 112 120 112 104 85 46 38 349 2 8 315 309 304 298 295 297 288 285 286 287
238 234 247 261 269 275 269 268 257 241 242 236 222 197 181 177 172 166 162 158 154 151 148 145 139 133 126 121 120 115 104 90 92 110 137 28 349 324 317 305 298 295 291 291 287 285 288 286 283
245 247 239 244 256 261 262 259 258 251 245 228 212 198 182 174 168 165 164 159 154 150 145 143 139 134 130 129 125 118 115 110 105 59 44 355 321 311 298 295 293 290 287 283 282 285 286 287 285
211 226 234 249 255 265 268 269 305 263 275 262 227 201 182 175 169 167 165 159 153 150 149 148 142 136 135 128 120 116 111 105 105 336 299 299 298 297 291 295 295 292 290 288 286 286 291 289 290
251 237 235 247 254 256 268 275 325 304 293 282 253 206 182 174 170 167 163 158 156 156 154 149 143 139 134 127 122 117 115 122 244 267 283 284 284 287 292 293 290 289 289 289 288 290 293 294 295